sat.trackr.live / text

‹ back to catalog

STARLINK-35107

NORAD 65464 · 2025-195G

PAYLOAD ACTIVE UNKNOWN

§ Identity

Operator
Country
US
Launch date
2025-09-03
Launch site
AFETR
Launch vehicle
Mass (kg)
RCS (m²)

Purposes: comms

External: N2YO · Heavens-Above · Gunter

§ Orbital elements

Epoch: 2026-05-25T01:10:19.642944Z

Period
94.01 min
Inclination
53.1591°
Eccentricity
0.0001167
Mean motion
15.31717656 rev/d
Perigee alt
469.9 km
Apogee alt
471.5 km
Semi-major
6,848.8 km
B*
9.8072e-4
RAAN
262.8606°
Arg perigee
100.4471°
Mean anomaly
259.6662°
Rev number
4,169

§ Raw data

STARLINK-351071 65464U 25195G   26145.04883846  .00030208  00000+0  98072-3 0  99972 65464  53.1591 262.8606 0001167 100.4471 259.6662 15.31717656 41691

JSON: /api/v1/satellites/65464 · /tle

For live sub-satellite position, see the globe view (requires WebGL).

§ Visibility from observer

Set your observer location to see the next 7 days of passes ≥ 10°. The values pass through the URL so the page stays shareable.

No JS? Fill the form by hand. The geolocation button needs JavaScript.